Showing default

SYMPHONIE 1, 7578

Orbit data source: Space-Track

SYMPHONIE 1, 7578 is an FR and DE payload satellite in GEO that was launched on Thu, 19 Dec 1974 UTC via a DELTA 2914 launch vehicle from the Air Force Eastern Test Range (AFETR). Payload-class satellites include a variety of spacecraft equipped with specific instruments for various scientific and technological missions. These include communications satellites like Starlink; space stations such as the ISS; scientific satellites like the Hubble; Earth observation satellites from companies like Planet Labs, Umbra, and HawkEye 360; GPS; miniature CubeSats for education and research; and military/defense satellites.

Not visible in the next 10 days
Identifier
7578, 1974-101A
Orbit
GEO
Country
Flag of FRFR / FGER
Flag of DEDE / FGER
Related business
Manufacturer
AELM/CIFAS
Mission
Spacecraft
Bus & Motor
SYMPHONIE, S400
Mass
400 kg wet, 240 kg dry
Launch date (UTC)
1974-12-19 (51 years ago)
Launch vehicle
DELTA 2914
Launch site
Air Force Eastern Test Range (AFETR)
Object type
Payload
Rocket body
Debris
Shape & HBR
Unknown
Radar Cross Section
Large (>1 m²)

Expand to show TLE details & history
Last TLE update: 5 hours ago

TLE from 5 hours ago
0 SYMPHONIE 1
1 07578U 74101A   26126.25657799 -.00000235  00000-0  00000-0 0  9998
2 07578   4.6824 277.5682 0002666  50.6102 319.5416  0.99961743116784
Epoch: 2026-05-06T06:09Z
TLE epoch observation values (Epoch: 2026-05-06T06:09:28.338Z)
Latitude
0.83063°
Longitude
-28.83689°
Altitude
35,864.612 km
Speed
3.072 km/s
True Right ascension
19h 10m 36s
True Declination
0° 49' 47"
Sunlit
Object was in daylight at epoch
Visualization orbit readout
Latitude
Unknown
Longitude
Unknown
Altitude
Unknown
Speed
Unknown
Apparent Right ascension
Unknown
Apparent Declination
Unknown
Sunlit
N/A
Visualization observer readout
Local Sidereal Time
19:05:00
Azimuth
Unknown
Elevation
Unknown
Doppler factor
Unknown
Orbital elements
Apogee altitude
35,886.058 km
Perigee altitude
35,863.529 km
Semi-major axis
42,252.93 km
Eccentricity
0.00027
Inclination
4.6824°
RAAN
277.5682°
Arg. of periapsis
50.6102°
True anomaly
319.52177°
Mean anomaly
319.5416°
Eccentric anomaly
319.53169°
Mean motion
0.2499 °/min
Orbital period
1,440.6 mins
BSTAR
0
Loading maneuver chart data...
Computing Atmospheric mass density...
Loading historical data...
Loading historical data...
Loading historical data...
Loading historical data...
Loading historical data...
Loading historical data...
Loading historical data...

Documentation

Showing up to 5 results
|